Weather Service Report


677 
ASUS45 KBOU 231707
RWRCO 

WEATHER ROUNDUP FOR COLORADO
NATIONAL WEATHER SERVICE DENVER/BOULDER CO
1000 AM MST SUN NOV 23 2014

NOTE: "FAIR" INDICATES FEW OR NO CLOUDS BELOW 12000 FEET WITH NO
SIGNIFICANT WEATHER AND/OR OBSTRUCTIONS TO VISIBILITY.

COZ001>005-013-030-031-231800-
...NORTHWEST COLORADO...
  
CITY           SKY/WX    TMP DP  RH WIND       PRES   REMARKS
CRAIG          LGT SNOW  28  24  85 SW13      29.95R FOG     WCI  17  
HAYDEN         CLOUDY    27  21  80 W14       29.92R VSB 1/2 WCI  15  
MEEKER         LGT SNOW  27  25  92 SW6       29.96R FOG     WCI  20  
MOUNT WERNER   NOT AVBL                                               
STEAMBOAT SPGS CLOUDY    24  22  92 SW6       29.90R WCI  17          
WALDEN         CLOUDY    21  14  73 E5        29.84S WCI  15          
$$

COZ006>008-011-231800-
...WEST CENTRAL VALLEYS...
  
CITY           SKY/WX    TMP DP  RH WIND       PRES   REMARKS
GRAND JUNCTION CLOUDY    33  28  81 W15       29.99R WCI  23          
MONTROSE       LGT SNOW  31  28  89 NW18      29.98R FOG     WCI  19  
EAGLE          PTSUNNY   36  34  93 CALM      29.92R                  
RIFLE          SNOW      30  28  92 CALM      29.96R VSB 1/2          
DELTA          CLOUDY    37  30  78 W18       29.95S                  
NUCLA          CLOUDY    32  23  69 NW16G23   30.01R WCI  21          
$$

COZ017>023-064>068-231800-
...SOUTHWEST COLORADO...
  
CITY           SKY/WX    TMP DP  RH WIND       PRES   REMARKS
DURANGO        MOSUNNY   37  23  56 W18       29.84S                  
CORTEZ         CLOUDY    34  17  50 NW10G26   29.98R WCI  26          
PAGOSA SPRINGS MOSUNNY   37   8  30 W9        29.80S                  
TELLURIDE      SNOW      20  17  89 W20G28    29.91R VSB 1/4 WCI   5  
WOLF CREEK PAS PTSUNNY   12  10  92 MISG      29.79R                  
$$

COZ009-010-012-014-032>034-037-058>063-231800-
...CENTRAL COLORADO...
  
CITY           SKY/WX    TMP DP  RH WIND       PRES   REMARKS
ASPEN          CLOUDY    26  19  74 N8        29.87R WCI  18          
BUENA VISTA    PTSUNNY   30  12  46 N16G22    29.79R WCI  19          
COPPER MTN     CLOUDY    14   9  79 W21G30    29.78R WCI  -4          
BERTHOUD PASS  CLOUDY     5   1  85 N14G32    29.75R WCI -12          
COTTONWOOD PAS PTSUNNY   28   7  40 W6        29.78R WCI  22          
GUNNISON       MOSUNNY   28  18  64 S3        29.87R                  
KREMMLING      CLOUDY    30  19  64 CALM      29.88R                  
LEADVILLE      MOSUNNY   18   8  65 N18G25    29.79R WCI   2          
SALIDA         PTSUNNY   33  15  48 NW12G20   29.86S WCI  24          
SUNLIGHT       CLOUDY   N/A N/A N/A W3        29.87S                  
WILKERSON PASS CLOUDY    18   5  57 NW9       29.77S WCI   6          
$$

COZ069>075-231800-
...SAN LUIS VALLEY/SANGRE DE CRISTO MOUNTAINS...
  
CITY           SKY/WX    TMP DP  RH WIND       PRES   REMARKS
ALAMOSA        PTSUNNY   34  16  47 N15       29.77R WCI  24          
LA VETA PASS   LGT SNOW  19  16  86 MISG      29.77R VSB 1            
SAGUACHE       MOSUNNY   30  18  59 N15       29.79R WCI  19          
$$

COZ035-036-038>040-231800-
...NORTHERN COLORADO FRONT RANGE...
  
CITY           SKY/WX    TMP DP  RH WIND       PRES   REMARKS
DENVER INTL AP PTSUNNY   39  22  50 VRB5      29.80S                  
DMNS CITY PARK   N/A     41  19  41 E1G10     29.80R                  
AURORA         PTSUNNY   35  21  57 NE2       29.81R                  
FRONT RANGE AP PTSUNNY   37  21  52 W6        29.81                   
ERIE MUNI ARPT MOSUNNY   41  15  35 NE8       29.80S                  
BOULDER MUN AP MOSUNNY   41  19  42 E7        29.80R                  
CENTENNIAL     PTSUNNY   33  26  75 SW5       29.80R WCI  29          
BROOMFIELD     PTSUNNY   39  19  45 NE8       29.80R                  
FORT COLLINS   SUNNY     43  12  28 NW18G25   29.81R                  
LONGMONT       SUNNY     46  19  34 NE3       29.81S                  
$$

COZ041-046-047-076>085-087-088-231800-
...PIKES PEAK/PALMER DIVIDE AND SOUTHERN FOOTHILLS...
  
CITY           SKY/WX    TMP DP  RH WIND       PRES   REMARKS
COLO. SPRINGS  CLOUDY    34  22  61 NW17      29.78S WCI  23          
A. F. ACADEMY  CLOUDY    30  23  73 NW12      29.77F WCI  21          
ELLICOTT       NOT AVBL                                               
FALCON         NOT AVBL                                               
FORT CARSON    CLOUDY    35  22  61 N18G24    29.77R WCI  24          
LIMON          CLOUDY    34  18  52 N20G31    29.77R WCI  23          
MONUMENT HILL  CLOUDY    28  21  74 N9        29.77S WCI  20          
TRINIDAD       LGT SNOW  31  29  92 NW8       29.81R VSB 1   WCI  23  
$$

COZ042>045-048>051-090-091-231800-
...NORTHEAST COLORADO...
  
CITY           SKY/WX    TMP DP  RH WIND       PRES   REMARKS
GREELEY ARPT   SUNNY     45  14  29 NW23      29.81S                  
AKRON          CLOUDY    37  15  40 N29G37    29.77R                  
BURLINGTON     CLOUDY    41  12  30 N29G38    29.73R                  
WRAY           CLOUDY    43  14  30 N24G36    29.76R                  
STERLING       CLOUDY    43  19  39 N26       29.78R                  
HOLYOKE        CLOUDY    43  18  36 N23G29    29.75R                  
FORT MORGAN    CLOUDY    39  19  45 N14G21    29.81R                  
$$

COZ086-089-092>099-231800-
...SOUTHEAST COLORADO...
  
CITY           SKY/WX    TMP DP  RH WIND       PRES   REMARKS
PUEBLO         CLOUDY    39  19  44 N12       29.81R                  
LA JUNTA       CLOUDY    43  17  35 N23       29.78S                  
LAMAR          CLOUDY    44  13  28 N26G38    29.73R                  
SPRINGFIELD      N/A     39  23  52 N32G40    29.72R                  
$$

Return to Home page


Western Regional Climate Center, wrcc@dri.edu